This is the latest recevied weather packets stored in our database for station/object WA6OOO. If no packets are shown the sender has not sent any weather packets the latest 10 day(s).
| Time | Temp. | Humidity | Pressure | Rain* | Wind** | Luminosity | Snow |
|---|---|---|---|---|---|---|---|
| 1777919546 | 18.89° C | 56% | 1018.5 hPa | 0 mm | - | 737 W/m² | - |
| 1777919244 | 18.33° C | 57% | 1018.6 hPa | 0 mm | - | 752 W/m² | - |
| 1777918941 | 18.89° C | 56% | 1018.6 hPa | 0 mm | - | 427 W/m² | - |
| 1777918638 | 18.89° C | 55% | 1018.9 hPa | 0 mm | - | 391 W/m² | - |
| 1777918336 | 18.89° C | 55% | 1018.8 hPa | 0 mm | - | 621 W/m² | - |
| 1777918035 | 18.33° C | 55% | 1018.7 hPa | 0 mm | - | 627 W/m² | - |
| 1777917733 | 18.33° C | 59% | 1018.7 hPa | 0 mm | - | 927 W/m² | - |
| 1777917430 | 17.78° C | 58% | 1018.7 hPa | 0 mm | - | 495 W/m² | - |
| 1777917126 | 18.89° C | 60% | 1018.5 hPa | 0 mm | - | 503 W/m² | - |
| 1777916824 | 18.33° C | 60% | 1018.6 hPa | 0 mm | - | 529 W/m² | - |
| 1777916522 | 17.78° C | 60% | 1018.7 hPa | 0 mm | - | 444 W/m² | - |
| 1777916218 | 17.78° C | 58% | 1018.7 hPa | 0 mm | - | 498 W/m² | - |
| 1777915916 | 17.78° C | 60% | 1018.5 hPa | 0 mm | - | 417 W/m² | - |
| 1777915612 | 17.22° C | 62% | 1018.4 hPa | 0 mm | - | 511 W/m² | - |
| 1777915308 | 17.22° C | 63% | 1018.5 hPa | 0 mm | - | 477 W/m² | - |
| 1777915005 | 17.22° C | 63% | 1018.4 hPa | 0 mm | - | 470 W/m² | - |
| 1777914703 | 17.22° C | 64% | 1018.7 hPa | 0 mm | - | 406 W/m² | - |
| 1777914398 | 17.22° C | 64% | 1018.5 hPa | 0 mm | - | 583 W/m² | - |
| 1777914096 | 17.78° C | 64% | 1018.6 hPa | 0 mm | - | 593 W/m² | - |
| 1777913792 | 17.22° C | 65% | 1018.5 hPa | 0 mm | - | 511 W/m² | - |
| 1777913488 | 16.67° C | 65% | 1018.5 hPa | 0 mm | - | 584 W/m² | - |
| 1777913185 | 16.67° C | 65% | 1018.3 hPa | 0 mm | - | 557 W/m² | - |
| 1777912881 | 16.67° C | 64% | 1018.3 hPa | 0 mm | - | 531 W/m² | - |
| 1777912578 | 16.67° C | 65% | 1018.4 hPa | 0 mm | - | 468 W/m² | - |
| 1777912275 | 16.11° C | 65% | 1018.6 hPa | 0 mm | - | 512 W/m² | - |
* Rain latest hour (hover to see other rain measurements)
** Current wind speed in m/s (hover to see current wind gust speed)